Change the Weather History Date:

Saturday, October 15, 2011

  Actual Average (EGSC) Record (EGSC)
Temperature  
Mean Temperature 52 °F -  
Max Temperature 59 °F 57 °F 66 °F (2001)
Min Temperature 45 °F 46 °F 33 °F (2011)
Degree Days  
Heating Degree Days 13    
Growing Degree Days 2 (Base 50)    
Moisture  
Dew Point 43 °F    
Average Humidity 73    
Maximum Humidity 87    
Minimum Humidity 44    
Precipitation  
Precipitation 0.00 in - - ()
Sea Level Pressure  
Sea Level Pressure 30.30 in    
Wind  
Wind Speed 5 mph ()    
Max Wind Speed 15 mph    
Max Gust Speed -    
Visibility 7.3 miles    
Events      
Averages and records for this station are not official NWS values.
T = Trace of Precipitation, MM = Missing Value Source: Averaged Metar Reports

Daily Weather History Graph

Daily Weather History Graph

Search for Another Location

Airport or City:

Trip Planner

Search our weather history database for the weather conditions in past years. The results will help you decide how hot, cold, wet, or windy it might be!

Date:

Astronomy

Oct. 15, 2011 Rise Set
Actual Time 7:20 AM BST 6:02 PM BST
Civil Twilight 6:46 AM BST 6:36 PM BST
Nautical Twilight 6:06 AM BST 7:16 PM BST
Astronomical Twilight 5:27 AM BST 7:55 PM BST
Moon 7:16 PM BST (10/15) 11:01 AM BST (10/15)
Length of Visible Light 11h 50m
Length of Day
10h 42m
Waning Gibbous, 90% of the Moon is Illuminated
Oct 15
Waning Gibbous
Oct 20
Last Quarter
Oct 26
New
Nov 2
First Quarter
Nov 10
Full

Hourly Weather History & Observations

Time (BST) Temp. Windchill Dew Point Humidity Pressure Visibility Wind Dir Wind Speed Gust Speed Precip Events Conditions
12:50 AM 47 °F - 42 °F 76% 30.39 in 19 mi ESE 3.5 mph - -  
12:50 AM 48.2 °F - 41.0 °F 76% 30.36 in 6.2 mi ESE 3.5 mph - N/A   Unknown
1:50 AM 48.2 °F - 42.8 °F 82% 30.36 in 6.2 mi SE 4.6 mph - N/A   Unknown
2:50 AM 48.2 °F - 42.8 °F 82% 30.36 in 6.2 mi ESE 3.5 mph - N/A   Unknown
3:50 AM 48 °F - 43 °F 77% 30.36 in 22 mi ESE 3.5 mph - -  
3:50 AM 48.2 °F - 42.8 °F 82% 30.33 in 6.2 mi ESE 3.5 mph - N/A   Unknown
4:50 AM 48.2 °F - 42.8 °F 82% 30.33 in 6.2 mi ESE 4.6 mph - N/A   Unknown
5:50 AM 46.4 °F 43.5 °F 41.0 °F 81% 30.33 in 6.2 mi SE 5.8 mph - N/A   Unknown
6:50 AM 46 °F - 41 °F 76% 30.34 in 22 mi SE 4.6 mph - -  
6:50 AM 46.4 °F 44.3 °F 41.0 °F 81% 30.33 in 6.2 mi SE 4.6 mph - N/A   Unknown
7:50 AM 46.4 °F 44.3 °F 41.0 °F 81% 30.33 in 6.2 mi SE 4.6 mph - N/A   Unknown
8:50 AM 48.2 °F - 42.8 °F 82% 30.33 in 6.2 mi SE 4.6 mph - N/A   Unknown
9:50 AM 53 °F - 44 °F 62% 30.34 in 22 mi ESE 4.6 mph - -  
9:50 AM 53.6 °F - 44.6 °F 72% 30.33 in 6.2 mi ESE 4.6 mph - N/A   Unknown
10:50 AM 55.4 °F - 44.6 °F 67% 30.30 in 6.2 mi SE 10.4 mph - N/A   Unknown
11:50 AM 59.0 °F - 44.6 °F 59% 30.30 in 6.2 mi SE 12.7 mph - N/A   Unknown
12:50 PM 58 °F - 42 °F 44% 30.30 in 25 mi SE 15.0 mph - -  
12:50 PM 57.2 °F - 42.8 °F 59% 30.27 in 6.2 mi SE 15.0 mph - N/A   Unknown
1:50 PM 59.0 °F - 42.8 °F 55% 30.27 in 6.2 mi SE 13.8 mph - N/A   Unknown
2:50 PM 57.2 °F - 44.6 °F 63% 30.24 in 6.2 mi SE 11.5 mph - N/A   Unknown
3:50 PM 58 °F - 44 °F 48% 30.25 in 25 mi SE 11.5 mph - -  
3:50 PM 57.2 °F - 42.8 °F 59% 30.24 in 6.2 mi SE 11.5 mph - N/A   Unknown
4:50 PM 55.4 °F - 42.8 °F 63% 30.24 in 6.2 mi SE 9.2 mph - N/A   Unknown
6:50 PM 49 °F - 44 °F 76% 30.25 in 16 mi SSE 5.8 mph - -  
6:50 PM 48.2 °F - 44.6 °F 87% 30.24 in 6.2 mi SSE 5.8 mph - N/A   Unknown
7:50 PM 48.2 °F - 44.6 °F 87% 30.24 in 6.2 mi SSE 4.6 mph - N/A   Unknown
8:50 PM 48.2 °F - 44.6 °F 87% 30.21 in 6.2 mi SSE 5.8 mph - N/A   Unknown
9:50 PM 48 °F - 44 °F 79% 30.25 in 9 mi SSE 4.6 mph - -  
10:50 PM 48.2 °F - 42.8 °F 82% 30.21 in 6.2 mi South 5.8 mph - N/A   Unknown